Tracking 19562 objects as of 21-Mar-2019
HD Live streaming from Space Station
objects crossing your sky now

HILAT

Track HILAT now!
10-day predictions
HILAT is classified as:


NORAD ID: 14154
Int'l Code: 1983-063A
Perigee: 748.4 km
Apogee: 806.8 km
Inclination: 82.0 °
Period: 100.3 minutes
Semi major axis: 7148 km
RCS: 1.3804 m2 (large)
Launch date: June 27, 1983
Source: United States (US)
Launch site: AIR FORCE WESTERN TEST RANGE (AFWTR)
aabbcc
Your satellite tracking list
Your tracking list is empty




NASA's NSSDC Master Catalog

Two Line Element Set (TLE):
1 14154U 83063A   19079.53301539  .00000109  00000-0  31704-4 0  9999
2 14154  82.0219  94.4122 0040815  11.9137 145.4786 14.36392094867851
Source of the keplerian elements: AFSPC